This is the latest recevied weather packets stored in our database for station/object K7SKM. If no packets are shown the sender has not sent any weather packets the latest 10 day(s).
| Time | Temp. | Humidity | Pressure | Rain* | Wind** | Luminosity | Snow |
|---|---|---|---|---|---|---|---|
| 1777997959 | 14.44° C | 72% | 1020.6 hPa | 0 mm | - | 39 W/m² | - |
| 1777997655 | 13.89° C | 73% | 1020.7 hPa | 0 mm | - | 40 W/m² | - |
| 1777997353 | 13.89° C | 73% | 1020.4 hPa | 0 mm | - | 39 W/m² | - |
| 1777997051 | 13.89° C | 73% | 1020.7 hPa | 0 mm | - | 38 W/m² | - |
| 1777996747 | 13.89° C | 73% | 1020.5 hPa | 0 mm | - | 37 W/m² | - |
| 1777996443 | 13.89° C | 74% | 1020.5 hPa | 0 mm | - | 34 W/m² | - |
| 1777996140 | 13.89° C | 74% | 1020.7 hPa | 0 mm | - | 33 W/m² | - |
| 1777995836 | 13.89° C | 74% | 1020.8 hPa | 0 mm | - | 31 W/m² | - |
| 1777995532 | 13.89° C | 74% | 1020.5 hPa | 0 mm | - | 28 W/m² | - |
| 1777995230 | 13.89° C | 73% | 1020.6 hPa | 0 mm | - | 26 W/m² | - |
| 1777994927 | 13.89° C | 73% | 1020.7 hPa | 0 mm | - | 26 W/m² | - |
| 1777994624 | 13.89° C | 73% | 1020.4 hPa | 0 mm | - | 27 W/m² | - |
| 1777994324 | 13.89° C | 74% | 1020.4 hPa | 0 mm | - | 26 W/m² | - |
| 1777994021 | 13.89° C | 74% | 1020.4 hPa | 0 mm | - | 23 W/m² | - |
| 1777993718 | 13.89° C | 75% | 1020.4 hPa | 0 mm | - | 22 W/m² | - |
| 1777993415 | 13.89° C | 75% | 1020.3 hPa | 0 mm | - | 22 W/m² | - |
| 1777993109 | 13.89° C | 74% | 1020.6 hPa | 0 mm | - | 20 W/m² | - |
| 1777992808 | 13.89° C | 74% | 1020.3 hPa | 0 mm | - | 22 W/m² | - |
| 1777992505 | 13.33° C | 74% | 1020.3 hPa | 0 mm | - | 19 W/m² | - |
| 1777992203 | 13.33° C | 75% | 1020.3 hPa | 0 mm | - | 16 W/m² | - |
| 1777991900 | 13.33° C | 75% | 1020.3 hPa | 0 mm | - | 12 W/m² | - |
| 1777991598 | 13.33° C | 75% | 1020.2 hPa | 0 mm | - | 12 W/m² | - |
| 1777991294 | 13.33° C | 75% | 1020 hPa | 0 mm | - | 10 W/m² | - |
| 1777990992 | 13.33° C | 75% | 1020 hPa | 0 mm | - | 8 W/m² | - |
| 1777990689 | 13.33° C | 75% | 1020.1 hPa | 0 mm | - | 8 W/m² | - |
* Rain latest hour (hover to see other rain measurements)
** Current wind speed in m/s (hover to see current wind gust speed)